Other Surface Observations
Issued by NWS

Home | Current Version | Previous Version | Text Only | Print | Product List | Glossary On
Versions: 1 2 3 4 5 6 7 8 9 10 11 12 13 14 15 16 17 18 19 20 21 22 23 24 25 26 27 28 29 30 31 32 33 34 35 36 37 38 39 40 41 42 43 44 45 46 47 48 49 50
000
SXUS52 KTAE 070218
OSOTAE
OSOTAE
North Florida/South Alabama/Southwest Georgia Weather Roundup
National Weather Service Tallahassee Florida
1000 PM EDT MON JUL 06 2015

Note: "fair" indicates few or no clouds below 12,000 feet with no
significant weather and/or obstructions to visibility.

!FLZ017-115-028-034-025-070300
...North Florida...

CITY           SKY/WX    TMP DP  RH WIND       PRES   REMARKS
TALLAHASSEE    PTCLDY    81  74  79 CALM      30.11R
APALACHICOLA   CLEAR     82  73  74 CALM      30.10S
PERRY          PTCLDY    78  73  86 CALM      30.12S
CROSS CITY       N/A     80  71  74 E3        30.13R
JACKSONVILLE   CLOUDY    75  71  87 SW3       30.12R
$$

!FLZ112-006-005-002-011-070300
...Florida Panhandle...

CITY           SKY/WX    TMP DP  RH WIND       PRES   REMARKS
MARIANNA       CLEAR     79  74  84 CALM      30.09S
BONIFAY        FAIR      77  76  96 CALM      30.10S
PANAMA CITY NW FAIR      79  74  84 CALM      30.09F
TYNDALL AFB    CLEAR     77  74  89 CALM      30.10S
TYND DRONE APT FAIR      77  75  93 CALM      30.10R
DE FUNIAK SPR  FAIR      77  74  90 CALM      30.10F
EGLIN AFB      PTCLDY    82  72  72 W1        30.09S
DESTIN         CLEAR     83  74  74 VRB5      30.09S
HURLBURT       CLEAR     83  72  69 SW3       30.08S
CRESTVIEW      PTCLDY    79  75  87 CALM      30.11R
PENSACOLA      CLEAR     80  66  62 SW3       30.09S
$$

!ALZ063-066-070300
...South Alabama...

CITY           SKY/WX    TMP DP  RH WIND       PRES   REMARKS
DOTHAN         CLEAR     78  75  90 NW3       30.13F
OZARK CAIRNS   CLEAR     80  72  76 N1        30.10S
FT RUCKER HELI CLEAR     77  73  87 CALM      30.09S
RUCKER HELI 3  FAIR      78  73  85 CALM      30.12R
RUCKER HELI 2  FAIR      77  77 100 CALM      30.07F
FLORALA APT    CLEAR     77  73  87 CALM      30.11F
ANDALUSIA      CLEAR     80  75  84 CALM      30.09S
TROY           CLEAR     76  74  93 CALM      30.11S
EUFALA         FAIR      75  73  93 CALM      30.09S
MOBILE         PTCLDY    79  75  87 S7        30.10S
$$

!GAZ120>161-070300
...Southwest and South Central Georgia...

CITY           SKY/WX    TMP DP  RH WIND       PRES   REMARKS
THOMASVILLE    FAIR      77  73  88 CALM      30.13R
BAINBRIDGE     CLEAR     79  73  83 CALM      30.10S
MOODY AFB      PTCLDY    77  70  79 S2        30.11R
VALDOSTA       PTCLDY    78  73  84 S3        30.12R
MOULTRIE       CLEAR     77  73  88 CALM      30.13R
BLAKELY        CLEAR     79  79 100 CALM      30.11R
ALBANY         CLEAR     78  71  79 CALM      30.12S
TIFTON         FAIR      76  71  84 CALM      30.11S
FITZGERALD     FAIR      80  72  75 CALM      30.13S
CORDELE        FAIR      79  74  85 CALM      30.12S
AMERICUS       FAIR      73  73 100 CALM      30.13S
HOMERVILLE     FAIR      79  73  83 CALM      30.12R
$$

!GMZ750-755-770-775-070300
...Coastal and Buoy Obs...

STATION/POSITION TIME  TEMP    WIND        PRES    VSBY  WAVE
                       AIR SEA DIR/SP/G                  HT/PER
                 (UTC) (F)     (DEG/KT/KT) (MB)    (MI)  (FT/S)
KEATON BEACH     0200   81      90/  3/  4 1019.9R
CEDAR KEY        0200   84     300/  2/  3 1020.6R
C TOWER          0200   81     270/  5/  6 1019.7R
APALACHICOLA BUO 0150   83 85   30/  4/  6 1020.5R         2/ 4
PANAMA CITY BUOY 0150   83 85  330/  4/  4 1020.2R         2/ 7
MOBILE BUOY      0150   84 87  150/ 10/ 12 1019.2F         1/ 5
ORANGE BCH AL BU 0150   85 86  180/  6/  8 1018.5F         1/ 6
$$



USA.gov is the U.S. government's official web portal to all federal, state and local government web resources and services.